Location: Unspecified
(29.9680°N, 0.0000°E)
Time: 09:22:25
(UTC+00:00)

A-11 Canister half - Pass Details

Date: 19 June 2019
Orbit: 1526 x 1683 km, 47.3° (Epoch: 24 July)

Event Time Altitude Azimuth Distance (km) Brightness Sun altitude
Rises 05:49:40 0° 256° (WSW) 4,742 10.9 9.1°
Reaches altitude 10° 05:53:00 10° 263° (W) 3,739 10.5 9.8°
Maximum altitude 06:01:50 43° 333° (NNW) 2,038 9.8 11.6°
Drops below altitude 10° 06:10:34 10° 43° (NE) 3,693 12.3 13.3°
Sets 06:13:51 0° 50° (NE) 4,679 13.0 14.0°
